When you browse on this site, cookies collect data to enhance your experience and personalize the content and advertising you see.
Visit our Privacy Policy to learn more. By continuing to use the site, you agree to this use of cookies and data.
  • In France
  • List of Countries
  • For 7 days
  • Water Temperature
  • Weather Map
  • Weather Widgets
  • user-avatar
    Login

    Hourly Weather Abomey

    Today, 22 January, Wednesday

    Time Temperature Precipitation Wind Pressure Humidity
    00:00 +26°C° 0 mm 1 mps 738 mmHg 69%
    01:00 +26°C° 0 mm 1 mps 738 mmHg 71%
    02:00 +25°C° 0 mm 1 mps 738 mmHg 72%
    03:00 +25°C° 0 mm 1 mps 737 mmHg 74%
    04:00 +25°C° 0 mm 1 mps 738 mmHg 76%
    05:00 +22°C° 0 mm 0 mps 738 mmHg 77%
    06:00 +22°C° 0 mm 0 mps 739 mmHg 78%
    07:00 +25°C° 0 mm 0 mps 739 mmHg 66%
    08:00 +28°C° 0 mm 0 mps 740 mmHg 54%
    09:00 +31°C° 0 mm 0 mps 740 mmHg 42%
    10:00 +35°C° 0 mm 1 mps 740 mmHg 35%
    11:00 +37°C° 0 mm 1 mps 739 mmHg 28%
    12:00 +40°C° 0 mm 2 mps 739 mmHg 21%
    13:00 +40°C° 0 mm 2 mps 738 mmHg 19%
    14:00 +41°C° 0 mm 2 mps 737 mmHg 18%
    15:00 +41°C° 0 mm 2 mps 736 mmHg 16%
    16:00 +39°C° 0 mm 2 mps 736 mmHg 21%
    17:00 +37°C° 0 mm 3 mps 736 mmHg 25%
    18:00 +35°C° 0 mm 3 mps 736 mmHg 30%
    19:00 +33°C° 0 mm 3 mps 737 mmHg 42%
    20:00 +29°C° 0 mm 3 mps 737 mmHg 54%
    21:00 +27°C° 0 mm 3 mps 738 mmHg 66%
    22:00 +27°C° 0 mm 2 mps 737 mmHg 71%
    23:00 +26°C° 0 mm 2 mps 737 mmHg 75%

    Tomorrow, 23 January, Thursday

    Time Temperature Precipitation Wind Pressure Humidity
    00:00 +26°C° 0 mm 2 mps 737 mmHg 80%
    01:00 +25°C° 0 mm 1 mps 737 mmHg 82%
    02:00 +25°C° 0 mm 1 mps 737 mmHg 85%
    03:00 +24°C° 0 mm 1 mps 737 mmHg 88%
    04:00 +24°C° 0 mm 1 mps 737 mmHg 90%
    05:00 +24°C° 0 mm 1 mps 738 mmHg 91%
    06:00 +24°C° 0 mm 1 mps 738 mmHg 93%
    07:00 +26°C° 0 mm 1 mps 739 mmHg 80%
    08:00 +29°C° 0 mm 1 mps 739 mmHg 68%
    09:00 +32°C° 0 mm 1 mps 740 mmHg 55%
    10:00 +34°C° 0 mm 1 mps 740 mmHg 45%
    11:00 +37°C° 0 mm 1 mps 739 mmHg 36%
    12:00 +40°C° 0 mm 1 mps 739 mmHg 27%
    13:00 +40°C° 0 mm 1 mps 738 mmHg 24%
    14:00 +41°C° 0 mm 1 mps 737 mmHg 22%
    15:00 +41°C° 0 mm 1 mps 736 mmHg 20%
    16:00 +39°C° 0 mm 2 mps 736 mmHg 27%
    17:00 +36°C° 0 mm 3 mps 736 mmHg 33%
    18:00 +34°C° 0 mm 3 mps 736 mmHg 40%
    19:00 +31°C° 0 mm 3 mps 737 mmHg 51%
    20:00 +29°C° 0 mm 3 mps 737 mmHg 62%
    21:00 +28°C° 0 mm 3 mps 738 mmHg 72%
    22:00 +27°C° 0 mm 3 mps 738 mmHg 74%
    23:00 +27°C° 0 mm 2 mps 738 mmHg 76%

    Day after tomorrow, 24 January, Friday

    Time Temperature Precipitation Wind Pressure Humidity
    00:00 +27°C° 0 mm 2 mps 738 mmHg 78%
    01:00 +26°C° 0 mm 2 mps 738 mmHg 81%
    02:00 +26°C° 0 mm 1 mps 737 mmHg 83%
    03:00 +23°C° 0 mm 0 mps 737 mmHg 86%
    04:00 +25°C° 0 mm 1 mps 737 mmHg 87%
    05:00 +24°C° 0 mm 1 mps 738 mmHg 89%
    06:00 +24°C° 0 mm 1 mps 738 mmHg 90%
    07:00 +27°C° 0 mm 1 mps 739 mmHg 79%
    08:00 +29°C° 0 mm 1 mps 739 mmHg 68%
    09:00 +32°C° 0 mm 1 mps 740 mmHg 57%
    10:00 +34°C° 0 mm 1 mps 739 mmHg 47%
    11:00 +36°C° 0 mm 1 mps 739 mmHg 37%
    12:00 +39°C° 0 mm 2 mps 738 mmHg 27%
    13:00 +40°C° 0 mm 2 mps 738 mmHg 24%
    14:00 +40°C° 0 mm 3 mps 737 mmHg 20%
    15:00 +42°C° 0 mm 3 mps 736 mmHg 17%
    16:00 +39°C° 0 mm 3 mps 736 mmHg 20%
    17:00 +37°C° 0 mm 2 mps 736 mmHg 22%
    18:00 +35°C° 0 mm 2 mps 736 mmHg 24%
    19:00 +32°C° 0 mm 2 mps 737 mmHg 41%
    20:00 +30°C° 0 mm 2 mps 737 mmHg 57%
    21:00 +27°C° 0 mm 2 mps 737 mmHg 74%
    22:00 +26°C° 0 mm 2 mps 738 mmHg 78%
    23:00 +26°C° 0 mm 1 mps 738 mmHg 82%

    25 January, Saturday

    Time Temperature Precipitation Wind Pressure Humidity
    00:00 +25°C° 0 mm 1 mps 738 mmHg 87%
    01:00 +25°C° 0 mm 1 mps 738 mmHg 89%
    02:00 +24°C° 0 mm 1 mps 738 mmHg 91%
    03:00 +24°C° 0 mm 1 mps 737 mmHg 92%
    04:00 +24°C° 0 mm 1 mps 738 mmHg 93%
    05:00 +23°C° 0 mm 1 mps 738 mmHg 94%
    06:00 +21°C° 0 mm 0 mps 739 mmHg 94%
    07:00 +24°C° 0 mm 0 mps 739 mmHg 82%
    08:00 +27°C° 0 mm 0 mps 740 mmHg 69%
    09:00 +29°C° 0 mm 0 mps 741 mmHg 56%
    10:00 +33°C° 0 mm 1 mps 740 mmHg 45%
    11:00 +35°C° 0 mm 1 mps 739 mmHg 34%
    12:00 +38°C° 0 mm 2 mps 739 mmHg 23%
    13:00 +39°C° 0 mm 2 mps 738 mmHg 19%
    14:00 +40°C° 0 mm 2 mps 737 mmHg 15%
    15:00 +40°C° 0 mm 2 mps 737 mmHg 11%
    16:00 +38°C° 0 mm 2 mps 737 mmHg 16%
    17:00 +35°C° 0 mm 2 mps 737 mmHg 20%
    18:00 +32°C° 0 mm 2 mps 737 mmHg 25%
    19:00 +30°C° 0 mm 2 mps 737 mmHg 41%
    20:00 +28°C° 0 mm 3 mps 738 mmHg 57%
    21:00 +26°C° 0 mm 3 mps 738 mmHg 74%
    22:00 +26°C° 0 mm 2 mps 738 mmHg 79%
    23:00 +25°C° 0 mm 2 mps 738 mmHg 84%

    26 January, Sunday

    Time Temperature Precipitation Wind Pressure Humidity
    00:00 +24°C° 0 mm 2 mps 738 mmHg 89%
    01:00 +24°C° 0 mm 1 mps 738 mmHg 91%
    02:00 +24°C° 0 mm 1 mps 738 mmHg 93%
    03:00 +21°C° 0 mm 0 mps 738 mmHg 95%
    04:00 +21°C° 0 mm 0 mps 738 mmHg 95%
    05:00 +23°C° 0 mm 1 mps 739 mmHg 96%
    06:00 +23°C° 0 mm 1 mps 739 mmHg 97%
    07:00 +25°C° 0 mm 1 mps 740 mmHg 85%
    08:00 +28°C° 0 mm 1 mps 740 mmHg 72%
    09:00 +30°C° 0 mm 1 mps 741 mmHg 60%
    10:00 +33°C° 0 mm 1 mps 741 mmHg 49%
    11:00 +35°C° 0 mm 1 mps 740 mmHg 37%
    12:00 +39°C° 0 mm 1 mps 740 mmHg 26%
    13:00 +39°C° 0 mm 1 mps 739 mmHg 24%
    14:00 +40°C° 0 mm 1 mps 738 mmHg 21%
    15:00 +40°C° 0 mm 1 mps 737 mmHg 19%
    16:00 +37°C° 0 mm 2 mps 737 mmHg 27%
    17:00 +35°C° 0 mm 3 mps 737 mmHg 36%
    18:00 +33°C° 0 mm 4 mps 737 mmHg 44%
    19:00 +30°C° 0 mm 4 mps 738 mmHg 54%
    20:00 +28°C° 0 mm 3 mps 738 mmHg 63%
    21:00 +26°C° 0 mm 3 mps 739 mmHg 73%
    22:00 +26°C° 0 mm 3 mps 739 mmHg 76%
    23:00 +26°C° 0 mm 2 mps 739 mmHg 79%

    27 January, Monday

    Time Temperature Precipitation Wind Pressure Humidity
    00:00 +25°C° 0 mm 2 mps 739 mmHg 82%
    01:00 +25°C° 0 mm 2 mps 739 mmHg 85%
    02:00 +24°C° 0 mm 1 mps 739 mmHg 87%
    03:00 +24°C° 0 mm 1 mps 738 mmHg 90%
    04:00 +24°C° 0 mm 1 mps 739 mmHg 91%
    05:00 +24°C° 0 mm 1 mps 739 mmHg 91%
    06:00 +23°C° 0 mm 2 mps 739 mmHg 92%
    07:00 +26°C° 0 mm 2 mps 740 mmHg 81%
    08:00 +28°C° 0 mm 2 mps 740 mmHg 70%
    09:00 +30°C° 0 mm 2 mps 741 mmHg 59%
    10:00 +34°C° 0 mm 2 mps 740 mmHg 49%
    11:00 +35°C° 0 mm 1 mps 740 mmHg 40%
    12:00 +39°C° 0 mm 1 mps 740 mmHg 30%
    13:00 +40°C° 0 mm 1 mps 739 mmHg 27%
    14:00 +40°C° 0 mm 1 mps 738 mmHg 24%
    15:00 +41°C° 0 mm 1 mps 737 mmHg 21%
    16:00 +38°C° 0 mm 2 mps 737 mmHg 30%
    17:00 +35°C° 0 mm 4 mps 737 mmHg 39%
    18:00 +32°C° 0 mm 5 mps 737 mmHg 48%
    19:00 +30°C° 0 mm 4 mps 738 mmHg 56%
    20:00 +28°C° 0 mm 4 mps 739 mmHg 63%
    21:00 +27°C° 0 mm 3 mps 739 mmHg 71%
    22:00 +27°C° 0 mm 3 mps 739 mmHg 73%
    23:00 +26°C° 0 mm 3 mps 740 mmHg 75%
    Show more